SCP
0 0 0 0 0 0 0 0 0 0 0 0 0 0 0 0 0 0 0 0 0 0 0 0 0 0 0 0 0 0 0 0 0 0 0 0 0 0 0 0 0 0 0 0 0 0 0 0 0
0 0 0 0 0 0 0 0 0 0 0 0 0 0 0 0 0 0 0 0 0 0 0 0 0 0 0 0 0 0 0 0 0 0 0 0 0 0 0 0 0 0 0 0 0 0 0 0 0
0 0 0 0 0 0 0 0 0 0 0 0 0 0 0 0 0 0 0 0 0 0 0 0 0 0 0 0 0 0 0 0 0 0 0 0 0 0 0 0 0 0 0 0 0 0 0 0 0
0 0 0 0 0 0 0 0 0 0 0 0 0 0 0 0 0 0 0 0 0 0 0 0 0 0 0 0 0 0 0 0 0 0 0 0 0 0 0 0 0 0 0 0 0 0 0 0 0
0 0 0 0 0 0 0 0 0 0 0 0 0 0 0 0 0 0 0 0 0 0 0 0 0 0 0 0 0 0 0 0 0 0 0 0 0 0 0 0 0 0 0 0 0 0 0 0 0
0 0 0 0 0 0 0 0 0 0 0 0 0 0 0 0 0 0 0 0 0 0 0 0 0 0 0 0 0 0 0 0 0 0 0 0 0 0 0 0 0 0 0 0 0 0 0 0 0
0 0 0 0 0 0 0 0 0 0 0 0 0 0 0 0 0 0 0 0 0 0 0 0 0 0 0 0 0 0 0 0 0 0 0 0 0 0 0 0 0 0 0 0 0 0 0 0 0
0 0 0 0 0 0 0 0 0 0 0 0 0 0 0 0 0 0 0 0 0 0 0 0 0 0 0 0 0 0 0 0 0 0 0 0 0 0 0 0 0 0 0 0 0 0 0 0 0
0 0 0 0 0 0 0 0 0 0 0 0 0 0 0 0 0 0 0 0 0 0 0 0 0 0 0 0 0 0 0 0 0 0 0 0 0 0 0 0 0 0 0 0 0 0 0 0 0
0 0 0 0 0 0 0 0 0 0 0 0 0 0 0 0 0 0 0 0 0 0 0 0 0 0 0 0 0 0 0 0 0 0 0 0 0 0 0 0 0 0 0 0 0 0 0 0 0
0 0 0 0 0 0 0 0 0 0 0 0 0 0 0 0 0 0 0 0 0 0 0 0 0 0 0 0 0 0 0 0 0 0 0 0 0 0 0 0 0 0 0 0 0 0 0 0 0
0 0 0 0 0 0 0 0 0 0 0 0 0 0 0 0 0 0 0 0 0 0 0 0 0 0 0 0 0 0 0 0 0 0 0 0 0 0 0 0 0 0 0 0 0 0 0 0 0
0 0 0 0 0 0 0 0 0 0 0 0 0 0 0 0 0 0 0 0 0 0 0 0 0 0 0 0 0 0 0 0 0 0 0 0 0 0 0 0 0 0 0 0 0 0 0 0 0
0 0 0 0 0 0 0 0 0 0 0 0 0 0 0 0 0 0 0 0 0 0 0 0 0 0 0 0 0 0 0 0 0 0 0 0 0 0 0 0 0 0 0 0 0 0 0 0 0
0 0 0 0 0 0 0 0 0 0 0 0 0 0 0 0 0 0 0 0 0 0 0 0 0 0 0 0 0 0 0 0 0 0 0 0 0 0 0 0 0 0 0 0 0 0 0 0 0
0 0 0 0 0 0 0 0 0 0 0 0 0 0 0 0 0 0 0 0 0 0 0 1 1 0 0 0 0 0 0 0 0 0 0 0 0 0 0 0 0 0 0 0 0 0 0 0 0
0 0 0 0 0 0 0 0 0 0 0 0 0 0 0 0 0 0 0 0 0 0 0 1 1 1 0 0 0 0 0 0 0 0 0 0 0 0 0 0 0 0 0 0 0 0 0 0 0
0 0 0 0 0 0 0 0 0 0 0 0 0 0 0 0 0 0 0 0 0 0 0 1 1 1 1 0 0 0 0 0 0 0 0 0 0 0 0 0 0 0 0 0 0 0 0 0 0
0 0 0 0 0 0 0 0 0 0 0 0 0 0 0 0 0 0 0 0 0 0 0 1 1 1 1 1 0 0 0 0 0 0 0 0 0 0 0 0 0 0 0 0 0 0 0 0 0
0 0 0 0 0 0 0 0 0 0 0 0 0 0 0 0 0 0 0 0 0 0 0 1 1 1 1 1 1 1 0 0 0 0 0 0 0 0 0 0 0 0 0 0 0 0 0 0 0
0 0 0 0 0 0 0 0 0 0 0 0 0 0 0 0 0 0 0 0 0 0 0 1 1 1 1 1 1 1 1 0 0 0 0 0 0 0 0 0 0 0 0 0 0 0 0 0 0
0 0 0 0 0 0 0 0 0 0 0 0 0 0 0 0 0 0 0 0 0 0 0 0 1 1 1 1 1 1 1 1 0 0 0 0 0 0 0 0 0 0 0 0 0 0 0 0 0
0 0 0 0 0 0 0 0 0 0 0 0 0 0 0 0 0 0 0 0 0 0 0 0 0 1 1 1 1 1 1 1 1 0 0 0 0 0 0 0 0 0 0 0 0 0 0 0 0
0 0 0 0 0 0 0 0 0 0 0 0 0 0 0 0 0 0 0 0 0 0 0 0 0 0 1 1 1 1 1 1 1 0 0 0 0 0 0 0 0 0 0 0 0 0 0 0 0
0 0 0 0 0 0 0 0 0 0 0 0 0 0 0 0 0 0 0 0 0 0 0 0 0 0 0 1 1 1 1 1 1 1 1 0 0 0 0 0 0 0 0 0 0 0 0 0 0
0 0 0 0 0 0 0 0 0 0 0 0 0 0 0 0 0 0 0 0 0 0 0 0 0 0 0 0 0 1 1 1 1 1 1 0 0 0 0 0 0 0 0 0 0 0 0 0 0
0 0 0 0 0 0 0 0 0 0 0 0 0 0 0 0 0 0 0 0 0 0 0 0 0 0 0 0 0 0 1 1 1 1 0 0 0 0 0 0 0 0 0 0 0 0 0 0 0
0 0 0 0 0 0 0 0 0 0 0 0 0 0 0 0 0 0 0 0 0 0 0 0 0 0 0 0 0 0 0 0 0 0 0 0 0 0 0 0 0 0 0 0 0 0 0 0 0
0 0 0 0 0 0 0 0 0 0 0 0 0 0 0 0 0 0 0 0 0 0 0 0 0 0 0 0 0 0 0 0 0 0 0 0 0 0 0 0 0 0 0 0 0 0 0 0 0
0 0 0 0 0 0 0 0 0 0 0 0 0 0 0 0 0 0 0 0 0 0 0 0 0 0 0 0 0 0 0 0 0 0 0 0 0 0 0 0 0 0 0 0 0 0 0 0 0
Wind_Speed
11 9 6 3 3 4 1 4 5 5 5 6 6 5 7 10 7 9 5 10 16 15 13 11 11 12 12 11 11 12 12 13 13 13 13 14 14 15 15 16 16 16 16 17 17 18 18 17 17
8 7 4 3 4 4 3 5 5 5 8 7 4 1 4 9 8 8 7 12 15 14 12 11 11 12 12 11 11 12 12 12 13 13 13 13 14 15 15 15 15 16 16 16 16 17 17 16 16
7 6 3 3 4 4 4 7 8 9 7 5 3 2 6 7 8 7 9 13 13 12 11 12 11 12 12 11 11 11 11 12 12 13 13 13 14 14 14 15 15 15 15 15 16 16 16 15 14
4 3 4 4 7 2 5 7 11 8 4 2 3 6 6 5 5 9 12 12 12 12 12 12 12 12 12 11 11 11 11 11 12 12 12 13 13 13 14 14 14 14 15 15 15 15 15 14 13
3 3 4 5 6 2 4 5 10 8 7 4 1 7 7 5 9 12 10 11 11 12 12 11 11 11 11 10 11 11 11 11 11 12 12 12 12 12 13 13 13 13 14 14 14 14 14 13 13
3 3 4 6 5 3 4 3 6 7 6 5 1 4 7 7 8 9 9 10 10 12 12 10 10 10 10 9 9 10 10 10 11 11 11 11 11 11 11 12 12 12 13 13 13 13 13 12 12
3 3 6 6 4 4 5 3 5 5 6 6 2 4 7 7 8 8 7 8 10 11 11 9 8 8 9 9 8 9 9 9 10 11 11 10 10 10 10 10 11 11 11 12 12 12 11 11 10
3 3 6 7 4 5 6 4 2 3 5 4 2 2 8 10 9 8 7 7 10 10 10 9 8 8 7 7 8 9 9 10 10 10 10 9 9 9 8 8 9 10 10 11 11 11 10 10 8
3 3 5 6 3 5 8 5 2 4 6 4 5 6 9 14 11 8 6 5 8 8 8 8 8 8 8 7 8 8 9 9 10 8 9 8 5 5 5 8 9 9 10 10 10 9 8 7 5
3 3 6 3 1 5 8 6 6 3 5 5 6 6 10 11 11 10 8 8 8 8 7 7 8 7 7 7 7 5 5 6 5 5 5 3 3 4 7 9 9 9 9 9 8 6 3 2 2
4 5 4 2 6 4 7 6 7 6 5 7 10 12 11 10 10 10 9 9 8 8 6 6 7 7 6 5 5 4 4 4 5 7 5 3 4 4 5 3 4 4 5 4 4 3 1 0 1
5 5 3 2 3 2 5 5 5 5 2 4 7 15 13 12 12 11 11 10 9 9 9 6 6 6 6 6 4 4 4 3 3 5 6 4 3 3 3 3 4 3 2 3 2 1 1 1 1
6 3 1 3 1 1 2 4 4 4 6 6 7 12 12 11 10 9 9 9 9 10 10 9 7 7 6 5 4 4 4 4 4 4 5 5 4 3 3 3 3 3 3 3 2 2 2 1 0
5 4 3 3 2 1 2 3 2 5 7 7 6 8 9 10 10 9 9 9 10 10 10 10 9 8 7 5 4 4 4 4 4 5 5 5 4 4 4 3 3 3 3 3 2 3 3 2 1
2 3 3 4 4 2 2 3 6 5 6 7 7 7 8 9 9 10 10 9 9 9 10 11 10 9 8 7 6 4 4 4 4 4 6 6 5 5 4 4 4 3 3 3 2 2 2 2 2
4 5 5 6 5 2 3 6 7 6 7 7 7 8 8 8 9 8 9 9 9 9 10 11 10 10 10 8 7 5 4 5 4 4 5 6 6 5 5 4 4 4 3 3 3 3 2 2 2
6 7 8 5 6 5 5 6 3 4 5 6 6 7 7 7 8 8 8 8 9 9 10 11 11 11 10 9 7 6 5 5 5 4 5 6 7 6 5 4 4 5 4 3 3 3 3 3 3
8 8 9 8 7 6 6 7 3 4 5 6 6 6 7 7 8 7 7 7 7 7 9 10 11 11 10 8 6 5 6 5 5 5 6 7 7 7 6 4 5 5 4 4 4 4 3 2 2
5 9 8 4 4 5 7 8 8 6 7 7 7 7 6 7 6 6 6 6 6 6 7 9 10 11 9 8 8 8 8 6 6 6 7 8 8 8 7 5 5 5 5 5 5 4 4 3 2
6 6 6 4 2 1 4 9 9 8 8 8 8 8 7 6 5 5 6 6 6 6 7 7 9 10 10 9 8 7 6 6 7 6 8 9 9 8 7 7 6 6 5 5 6 5 3 3 3
7 6 5 5 3 1 2 7 10 11 10 9 8 7 6 6 6 6 6 6 5 5 6 6 7 8 10 9 6 5 5 5 6 7 7 8 9 9 9 9 7 7 7 6 7 7 7 5 4
7 4 1 6 4 4 5 5 7 9 10 10 9 8 7 6 5 5 5 5 4 4 3 4 5 6 7 9 8 9 8 8 7 6 6 8 9 9 9 9 9 8 7 7 7 7 6 5 4
2 4 4 4 3 2 3 4 8 5 7 9 9 9 7 5 5 5 4 4 3 2 1 2 3 4 5 7 9 9 8 6 4 5 7 7 7 8 9 8 8 8 7 7 7 7 7 6 6
7 6 5 1 2 5 8 6 7 6 7 6 7 7 6 5 4 4 5 4 3 2 1 1 1 2 3 4 6 8 8 7 5 5 5 5 4 5 7 7 7 7 6 7 8 7 8 8 7
7 7 4 3 4 7 5 7 9 5 4 6 6 6 6 5 5 5 5 4 3 2 1 1 1 1 1 2 2 4 6 6 5 4 4 3 3 3 5 5 6 5 6 6 6 6 7 8 8
9 9 8 8 7 4 1 8 8 2 3 3 4 5 5 5 4 5 4 4 4 3 1 2 2 2 2 2 2 1 3 3 3 3 3 3 2 2 3 4 4 4 5 5 5 5 6 5 7
8 8 5 4 3 2 7 7 6 2 2 3 4 5 6 6 6 6 5 4 4 4 2 3 4 4 4 4 4 4 4 4 4 3 3 2 2 2 2 2 2 2 2 3 3 3 4 4 5
4 7 4 5 7 6 6 7 7 7 10 9 9 8 7 7 7 6 5 4 4 4 4 4 5 5 5 5 5 5 5 5 5 5 5 4 4 3 3 3 2 2 1 0 1 1 1 2 3
5 8 7 6 6 7 5 8 4 9 10 9 9 8 9 8 8 6 5 5 4 4 4 4 5 5 5 5 6 6 6 6 6 6 5 4 4 4 4 3 3 3 3 2 1 1 1 1 2
7 9 9 8 7 6 4 9 1 3 4 5 6 7 7 8 7 7 6 6 5 4 4 5 5 5 5 5 6 6 6 6 6 6 6 5 5 5 5 4 4 4 4 3 2 2 2 1 2
Wind_Direction
302 284 276 276 262 245 199 92 88 88 85 68 57 15 44 49 40 100 135 120 116 119 126 126 121 119 115 111 107 100 99 96 93 91 88 84 81 80 79 77 76 76 75 75 75 74 73 73 72
302 299 282 255 259 250 147 119 122 109 91 91 86 30 85 80 84 109 123 117 119 124 133 126 124 122 118 114 111 104 102 100 97 95 92 87 84 82 81 79 77 77 76 76 75 76 75 74 72
286 274 269 255 253 270 122 129 120 94 106 136 137 42 48 78 108 118 123 125 122 125 123 123 127 126 121 117 114 108 105 105 101 99 95 90 86 83 82 81 79 78 77 77 77 77 76 74 71
283 250 243 256 259 307 77 121 114 116 128 165 139 107 78 37 79 116 129 129 126 122 120 129 129 128 124 120 118 114 109 108 106 102 98 93 89 86 84 83 82 80 79 79 78 78 76 74 69
248 252 237 249 258 81 68 99 124 140 155 169 217 103 93 78 94 119 135 131 127 122 124 133 129 129 127 125 122 119 114 112 109 107 103 98 94 93 90 87 86 84 83 82 81 79 77 74 67
252 247 233 230 227 118 101 114 145 160 144 135 194 105 101 120 121 135 140 133 129 123 125 132 126 128 128 125 123 121 118 116 114 112 109 103 99 97 94 92 91 88 87 85 83 81 80 75 67
253 250 251 240 195 138 126 152 182 162 133 145 185 110 118 134 130 141 144 140 129 124 128 136 137 131 126 123 120 120 118 116 116 113 108 101 96 95 89 90 94 93 92 90 88 86 83 77 68
289 267 249 250 203 146 131 164 200 158 120 87 26 76 134 136 136 142 151 144 130 130 138 146 150 146 141 129 123 121 119 117 115 113 111 106 102 100 97 92 94 97 98 96 93 90 86 81 71
293 266 238 233 207 129 138 160 113 31 93 92 65 47 101 127 137 143 150 143 134 141 147 149 153 152 151 146 137 128 125 124 123 120 129 137 140 128 109 96 97 98 99 97 94 94 94 93 82
222 243 247 253 334 127 154 162 139 151 146 140 113 97 114 133 149 158 164 164 156 156 157 153 154 152 152 147 146 152 147 149 154 146 163 185 131 111 108 101 101 101 102 102 100 104 124 157 141
219 243 265 19 27 98 153 162 151 180 188 180 166 152 148 155 165 173 176 176 172 168 163 159 157 153 149 139 156 157 154 163 164 157 174 153 117 118 120 121 121 124 136 125 133 155 220 356 78
237 255 296 59 32 82 155 152 162 215 98 73 137 151 156 169 180 185 183 182 177 175 173 172 164 157 155 152 162 155 152 160 162 161 168 151 144 151 151 153 163 164 165 147 164 155 113 19 25
241 240 47 71 72 18 144 164 179 205 128 89 97 138 163 178 187 192 187 181 179 180 173 176 173 169 165 163 166 163 163 166 164 161 171 165 160 165 161 157 156 169 156 159 171 157 156 192 220
217 210 151 146 145 121 184 174 176 224 148 131 139 162 179 185 188 189 190 187 183 180 175 174 179 176 172 176 175 169 168 167 164 164 175 181 171 168 165 164 168 177 165 166 170 170 167 191 189
207 173 177 183 174 165 183 211 218 212 148 162 177 189 195 194 188 192 191 189 185 180 174 174 180 180 180 184 185 178 173 168 174 171 179 183 184 174 169 170 175 181 167 158 159 176 167 191 194
200 199 202 184 172 146 186 233 217 177 166 194 203 200 194 198 196 195 191 186 184 177 177 176 177 183 188 188 188 184 182 177 180 174 180 187 190 185 176 175 179 177 164 164 175 185 186 205 209
196 209 205 170 182 161 203 241 195 141 170 211 221 214 195 193 199 199 193 185 185 180 177 176 177 183 189 189 188 189 184 185 182 182 186 191 193 192 185 184 181 171 169 178 184 189 187 202 215
190 205 207 191 180 177 213 242 212 174 190 222 232 224 204 198 201 196 188 184 182 182 178 178 179 183 184 186 188 191 193 192 189 190 195 192 194 194 192 189 184 172 173 186 188 193 198 202 201
218 208 211 179 128 183 220 242 243 209 199 220 234 235 219 208 199 186 179 174 175 184 185 183 182 184 183 187 191 195 200 197 198 198 196 197 195 194 195 191 188 181 188 194 190 184 200 212 158
258 234 207 110 96 207 250 254 251 238 219 212 218 226 223 213 197 180 169 166 176 188 194 193 191 188 188 192 193 196 196 199 202 201 201 200 199 196 196 197 194 190 193 197 193 184 183 194 168
225 231 208 139 123 240 300 280 241 238 228 222 220 224 227 212 199 180 173 172 174 189 198 203 203 199 194 190 185 185 196 200 199 201 202 202 199 197 195 199 197 193 194 204 203 193 189 199 197
213 216 169 126 144 212 187 268 255 217 215 217 219 219 223 218 198 173 167 166 170 189 201 215 214 210 201 190 190 190 198 207 205 195 197 196 198 199 199 199 200 198 198 206 207 201 201 194 200
169 134 131 146 192 257 198 245 272 218 211 218 216 213 210 194 171 160 143 132 118 122 180 225 233 224 209 197 194 196 206 207 200 193 192 192 193 197 199 198 200 202 202 206 205 199 202 205 208
121 93 81 100 193 247 212 212 263 215 205 209 209 192 168 145 133 121 105 97 93 78 74 200 228 239 219 201 196 197 202 202 203 202 192 186 180 189 196 196 199 203 204 207 209 207 206 210 216
153 134 126 178 214 241 202 209 244 226 182 178 173 153 138 137 141 140 138 134 124 109 127 165 171 199 190 179 190 190 189 189 197 197 186 175 168 176 192 195 199 201 207 208 205 206 210 211 215
190 173 161 177 202 228 255 230 249 207 106 95 118 134 141 151 145 139 137 135 129 119 107 115 121 114 111 123 130 130 150 155 163 169 164 158 154 157 164 178 188 198 204 206 204 207 212 212 219
173 213 198 140 126 198 233 247 255 188 190 193 192 184 187 172 154 146 137 129 126 121 103 95 100 86 75 79 82 79 87 101 103 100 98 97 93 93 103 134 162 177 188 198 196 208 213 214 220
191 167 150 165 166 217 247 228 225 198 219 214 204 200 187 162 152 146 137 125 115 114 104 89 92 91 80 77 78 79 74 77 83 83 80 79 74 72 73 67 75 83 94 114 177 214 224 218 226
177 181 180 173 177 178 233 250 222 189 194 197 199 185 169 162 159 150 138 128 121 111 105 98 91 89 86 83 82 80 73 71 73 74 69 68 65 63 60 58 59 56 51 42 41 13 349 265 263
208 195 181 174 207 197 210 257 274 104 151 164 164 155 150 151 149 144 140 137 134 126 112 102 97 92 89 89 88 86 80 75 72 69 63 61 61 56 53 54 56 48 41 37 29 8 350 309 290